Regional Weather Roundup
Issued by NWS

Home | Current Version | Previous Version | Graphics & Text | Print | Product List | Glossary Off
Versions: 1 2 3 4 5 6 7 8 9 10 11 12 13 14 15 16 17 18 19 20 21 22 23 24 25 26 27

000
ASUS45 KCYS 182210
RWRWY

WYOMING REGIONAL WEATHER ROUNDUP
NATIONAL WEATHER SERVICE CHEYENNE WY
400 PM MDT FRI AUG 18 2017

NOTE:  "FAIR" INDICATES FEW OR NO CLOUDS BELOW 12,000 FEET
WITH NO SIGNIFICANT WEATHER AND/OR OBSTRUCTIONS TO VISIBILITY.

WYZ001-182300-
YELLOWSTONE NATIONAL PARK

CITY           SKY/WX    TMP DP  RH WIND       PRES   REMARKS
LK YELLOWSTONE   N/A     72  26  18 NW12G21   30.32F
W YELLOWSTONE  NOT AVBL

$$
WYZ002>013-054>058-071-098>099-182300-
NORTHERN WYOMING

CITY           SKY/WX    TMP DP  RH WIND       PRES   REMARKS
JACKSON        FAIR      80  29  15 NW14G21     N/A
CODY           FAIR      87  34  15 VRB6G20   30.06F
GREYBULL       FAIR      90  31  12 E7        29.98F
WORLAND        FAIR      91  31  11 N8        30.00F
SHERIDAN       FAIR      90  34  13 VRB5      30.00F
BUFFALO        FAIR      89  30  12 NE7       30.07F
GILLETTE       FAIR      87  28  12 MISG      30.03F
HULETT         FAIR      84  34  16 CALM      30.05F
NEWCASTLE      FAIR      84  30  14 S3        30.05F

$$
WYZ014>020-022>026-101>103-182300-
CENTRAL WYOMING

CITY           SKY/WX    TMP DP  RH WIND       PRES   REMARKS
BIG PINEY      FAIR      81  30  15 VRB6G21   30.25F
PINEDALE       FAIR      77  28  16 NW13G18   30.26F
DUBOIS         FAIR      77  25  14 NW16G25   30.23F
LANDER           N/A    N/A N/A N/A MISG      30.09F
RIVERTON       FAIR      86  27  11 VRB7      30.11F
CASPER         FAIR      85  31  14 SW18      30.11F
DOUGLAS        FAIR      86  35  16 NW9G18    30.10F

$$
WYZ021-027>030-104>119-182300-
SOUTHERN WYOMING

CITY           SKY/WX    TMP DP  RH WIND       PRES   REMARKS
EVANSTON       FAIR      81  31  16 W17G28    30.30F
KEMMERER         N/A    N/A N/A N/A W21G32    30.30S
FORT BRIDGER   FAIR      82  27  13 W12G24    30.30F
ROCK SPRINGS   FAIR      83  28  13 W15G26    30.24F
RAWLINS        FAIR      82  27  13 W22G29    30.24F
SARATOGA       FAIR      79  30  17 NW7G18    30.28F
LARAMIE        FAIR      79  31  17 W13       30.27F
CHEYENNE       FAIR      84  33  16 W9        30.19F
TORRINGTON     FAIR      87  35  15 SE6       30.05F
PINE BLUFFS    FAIR      82  39  21 SE6       30.14F

$$




USA.gov is the U.S. government's official web portal to all federal, state and local government web resources and services.